User: anonymous   Login
Location: Unspecified
(0.0000°N, 0.0000°E)
Time: 00:59:43
(UTC+00:00)
Language:

WGS 5 (USA 243) - Orbit

View from above orbital plane
View from above orbital plane
View from above satellite
View from above satellite

Ground track
Ground track

The orbit data is extracted from the following two-line orbital elements,

1 39168U 13024A   18344.92480004 -.00000279  00000-0  00000+0 0  9992
2 39168   0.0254 343.4508 0000176 143.1866 233.3642  1.00270106 20305
Epoch (UTC): 10 December 2018 22:11:42
Eccentricity: 0.0000176
inclination: 0.0254°
perigee height: 35786 km
apogee height: 35787 km
right ascension of ascending node: 343.4508°
argument of perigee: 143.1866°
revolutions per day: 1.00270106
mean anomaly at epoch: 233.3642°
orbit number at epoch: 2030

The dashed part of the orbit path shows where the satellite is in the earth's shadow,  

DLR